User: anonymous   Login
Location: Kerguer�zec
(48.4509°N, 4.7600°W)
Time: 16:04:56
(UTC+00:00)
Language:

STARLINK-1244 - Orbit

View from above orbital plane
View from above orbital plane
View from above satellite
View from above satellite

Ground track
Ground track

The orbit data is extracted from the following two-line orbital elements,

1 45196U 20012U   20195.83334491  .00031084  00000-0  21423-2 0  9992
2 45196  52.9993 316.1219 0001366 109.5908  35.4669 15.05594602 22728
Epoch (UTC): 13 July 2020 20:00:01
Eccentricity: 0.0001366
inclination: 52.9993°
perigee height: 549 km
apogee height: 550 km
right ascension of ascending node: 316.1219°
argument of perigee: 109.5908°
revolutions per day: 15.05594602
mean anomaly at epoch: 35.4669°
orbit number at epoch: 2272

The dashed part of the orbit path shows where the satellite is in the earth's shadow,  

DLR